[[{"header":{"parameterUnit":"m.s-1","parameterCategory":1,"la1":30.2991,"la2":30.254,"lo1":-89.0895,"lo2":-89.0444,"dy":0.0017,"dx":0.0017,"nx":28,"ny":28,"refTime":"2024-04-17T21:00:00:Z","depth":0,"parameterNumber":2,"parameterNumberName":"U-component_of_WINDS"},"data":[0,0,0,0,0,0,0,0,0,0,0,0,0,0,0,0,0,0,0,0,0,0,0,0,0,0,0,0,0,0,0,0,0,0,0,0,0,0,0,0,0,0,0,0,0,0,0,0,0,0,0,0,0,0,0,0,0,0,-0.0419,-0.0419,0,-0.042,-0.042,-0.042,-0.0454,-0.0454,-0.0455,-0.0456,-0.0454,-0.0453,-0.0452,0,0,0,0,0,0,0,0,0,0,0,0,0,-0.0444,-0.0443,-0.0419,-0.0419,-0.0419,-0.042,-0.042,-0.042,-0.0453,-0.0454,-0.0456,-0.0457,-0.0454,-0.0453,-0.0452,0,0,0,0,0,0,0,0,0,0,0,0,0,-0.0438,-0.0443,-0.0419,-0.0436,-0.0437,-0.042,-0.042,-0.042,-0.0453,-0.0455,-0.0456,-0.0457,-0.0455,-0.0454,-0.0452,-0.0418,0,0,-0.0448,-0.0448,0,0,0,0,0,0,0,0,-0.0438,-0.0437,-0.0433,-0.0435,-0.0436,-0.0438,-0.0428,-0.0419,-0.0453,-0.0447,-0.0456,-0.0458,-0.0448,-0.0447,-0.0444,-0.0418,-0.0418,-0.0448,-0.0447,-0.0447,-0.0446,0,0,0,0,0,0,0,-0.0439,-0.0437,-0.0419,-0.0433,-0.0435,-0.0443,-0.0443,-0.0427,-0.044,-0.0448,-0.045,-0.045,-0.0449,-0.0445,-0.0444,-0.0417,-0.0448,-0.0447,-0.0446,-0.0446,-0.0363,-0.0361,0,0,0,0,0,0,-0.0437,-0.0437,-0.0419,-0.0419,-0.0441,-0.0441,-0.0442,-0.0436,-0.044,-0.0442,-0.0449,-0.0452,-0.0447,-0.0446,-0.0444,-0.0404,-0.0447,-0.0446,-0.0445,-0.0364,-0.0362,-0.0361,0,0,0,0,0,0,-0.0437,-0.0435,-0.0419,-0.0429,-0.0427,-0.0439,-0.0433,-0.0435,-0.0432,-0.0441,-0.0443,-0.0443,-0.0448,-0.0446,-0.0424,-0.0405,-0.0445,-0.0444,-0.0366,-0.0364,-0.0362,-0.0323,0,0,0,0,0,0,-0.0438,-0.0435,-0.0422,-0.0428,-0.0427,-0.04,-0.0431,-0.0434,-0.043,-0.0434,-0.0436,-0.0438,-0.0449,-0.0426,-0.0423,-0.0403,-0.0443,-0.0368,-0.0365,-0.0362,-0.0326,-0.032,-0.0315,0,0,0,0,0,-0.0439,-0.0411,-0.0422,-0.0419,-0.0411,-0.0398,-0.0397,-0.0411,-0.0428,-0.0416,-0.0421,-0.0438,-0.0407,-0.0424,-0.042,-0.04,-0.0369,-0.0366,-0.0363,-0.0329,-0.0321,-0.0315,0,0,0,0,0,0,-0.0401,-0.0412,-0.0424,-0.0397,-0.0397,-0.0404,-0.0388,-0.0403,-0.0397,-0.04,-0.0417,-0.0417,-0.0392,-0.0394,-0.0412,-0.0367,-0.0391,-0.0387,-0.0367,-0.0359,-0.0354,-0.0353,-0.0442,0,0,0,0,0,-0.039,-0.0379,-0.0389,-0.0365,-0.0364,-0.0376,-0.0371,-0.0382,-0.0382,-0.0381,-0.0385,-0.0384,-0.0374,-0.0367,-0.0358,-0.0327,-0.0328,-0.0312,-0.0306,-0.0301,-0.0297,-0.0281,-0.0273,-0.0351,-0.0351,-0.0351,0,0,-0.0366,-0.0371,-0.0363,-0.0357,-0.0358,-0.0346,-0.0376,-0.0361,-0.0352,-0.0379,-0.0359,-0.0362,-0.0361,-0.0334,-0.0323,-0.0335,-0.0276,-0.0297,-0.0293,-0.0292,-0.0277,-0.0269,-0.0263,-0.0348,-0.0349,-0.0349,0,0,-0.0317,-0.032,-0.03,-0.03,-0.0302,-0.031,-0.0305,-0.0311,-0.0314,-0.0294,-0.0314,-0.0303,-0.0286,-0.0284,-0.0282,-0.0233,-0.0247,-0.0229,-0.0199,-0.0182,-0.0176,-0.0171,-0.0153,-0.0146,-0.0226,-0.0225,-0.0225,0,-0.0287,-0.027,-0.0287,-0.0272,-0.0269,-0.0293,-0.0273,-0.0272,-0.027,-0.0267,-0.0281,-0.0261,-0.0262,-0.0235,-0.0223,-0.022,-0.0215,-0.0229,-0.0176,-0.0171,-0.0166,-0.0149,-0.0142,-0.0223,-0.0223,-0.0224,-0.0224,0,-0.0233,-0.0221,-0.0205,-0.0204,-0.0199,-0.0181,-0.0194,-0.0187,-0.0199,-0.0205,-0.0185,-0.0188,-0.018,-0.0175,-0.0185,-0.0149,-0.0157,-0.0173,-0.0198,-0.0156,-0.014,-0.0134,-0.022,-0.0221,-0.0221,-0.0222,0,0,-0.0159,-0.0168,-0.0162,-0.0162,-0.0166,-0.0156,-0.0139,-0.0133,-0.0126,-0.0124,-0.011,-0.0095,-0.0111,-0.0107,-0.0118,-0.0104,-0.0065,-0.0122,-0.0122,-0.0111,-0.0025,-0.0012,-0.0004,-0.0075,-0.0074,-0.0073,-0.0025,0,-0.0111,-0.0084,-0.0099,-0.0069,-0.0058,-0.0082,-0.0067,-0.0067,-0.0073,-0.0064,-0.0071,-0.006,-0.0081,-0.0079,-0.0067,-0.0072,-0.0048,-0.0076,-0.0061,-0.006,-0.006,0.0004,0.0017,0.0063,-0.0019,-0.0018,-0.0017,0,-0.0052,-0.0048,-0.0017,-0.0024,-0.0019,-0.0006,-0.0002,0.0007,0.0006,0.0001,0.0004,-0.001,0.0007,-0.0018,0.0005,-0.0014,-0.0009,-0.0011,-0.001,-0.0008,-0.0036,0.0008,0.0077,0.0084,-0.0008,-0.0009,-0.0009,0,-0.0,0.0012,0.0032,0.0033,0.0026,0.0036,0.0034,0.0032,0.0037,0.0041,0.0044,0.005,0.0054,0.0059,0.0047,0.003,0.0072,0.0046,0.0069,0.0069,0.008,0.008,0.0152,0.0082,0.0082,0.0082,0.0082,0,0.0055,0.0075,0.0055,0.0067,0.0089,0.0072,0.0094,0.0089,0.0087,0.0099,0.0079,0.009,0.0073,0.0083,0.0074,0.0095,0.0097,0.0093,0.0091,0.0095,0.0096,0.0099,0.0096,0.0084,0.0083,0.0083,0.0082,0,0.0117,0.0104,0.0124,0.0116,0.0114,0.013,0.0124,0.0135,0.0127,0.0142,0.0145,0.0133,0.0143,0.0131,0.0141,0.0135,0.0163,0.0156,0.0163,0.0162,0.0185,0.0183,0.0263,0.0272,0.0196,0.0197,0.0197,0,0.0153,0.0168,0.0161,0.0166,0.0165,0.0175,0.0179,0.0163,0.0168,0.0168,0.018,0.0188,0.0195,0.0213,0.0206,0.0213,0.0206,0.0233,0.0207,0.0211,0.0207,0.0207,0.0208,0.0239,0.024,0.0241,0.0241,0,0.022,0.0212,0.0219,0.0224,0.0229,0.0232,0.0234,0.024,0.0222,0.023,0.024,0.0244,0.0254,0.0263,0.0268,0.0267,0.0252,0.0249,0.0255,0.0261,0.0265,0.0263,0.0179,0.0248,0.0247,0.0247,0.0246,0.0246,0.027,0.0282,0.0279,0.0287,0.0286,0.0288,0.0298,0.0291,0.0299,0.0305,0.0294,0.0307,0.0306,0.0311,0.0311,0.0322,0.031,0.0319,0.0321,0.0323,0.0327,0.0262,0.0323,0.0322,0.0322,0.0322,0.0322,0,0.0336,0.0332,0.034,0.0342,0.0349,0.0332,0.0333,0.034,0.0351,0.0351,0.0357,0.0368,0.0377,0.037,0.0377,0.0387,0.038,0.0389,0.0389,0.0389,0.0337,0.0331,0.0395,0.0395,0.0395,0.0395,0.0395,0.0395,0.0371,0.039,0.0382,0.0401,0.0398,0.0409,0.0411,0.0413,0.0412,0.0426,0.0433,0.0428,0.0425,0.0432,0.0439,0.0437,0.0441,0.0453,0.0448,0.04,0.0393,0.0386,0.0381,0.0454,0.0454,0.05,0.05,0.0501]},{"header":{"parameterUnit":"m.s-1","parameterCategory":1,"la1":30.2991,"la2":30.254,"lo1":-89.0895,"lo2":-89.0444,"dy":0.0017,"dx":0.0017,"nx":28,"ny":28,"refTime":"2024-04-17T21:00:00:Z","depth":0,"parameterNumber":3,"parameterNumberName":"V-component_of_WINDS"},"data":[0,0,0,0,0,0,0,0,0,0,0,0,0,0,0,0,0,0,0,0,0,0,0,0,0,0,0,0,0,0,0,0,0,0,0,0,0,0,0,0,0,0,0,0,0,0,0,0,0,0,0,0,0,0,0,0,0,0,3.1281,3.1282,0,3.1399,3.14,3.1402,3.1394,3.1392,3.1391,3.1389,3.1505,3.151,3.1514,0,0,0,0,0,0,0,0,0,0,0,0,0,3.1044,3.1049,3.1281,3.1282,3.1284,3.1399,3.14,3.1402,3.1394,3.1392,3.139,3.1388,3.1504,3.1509,3.1515,0,0,0,0,0,0,0,0,0,0,0,0,0,3.1153,3.105,3.1281,3.1294,3.1296,3.1399,3.1401,3.1403,3.1395,3.1392,3.139,3.1387,3.1502,3.1509,3.1516,3.1611,0,0,3.1537,3.154,0,0,0,0,0,0,0,0,3.1147,3.1162,3.1291,3.1293,3.1296,3.1379,3.136,3.1472,3.1395,3.1357,3.1389,3.1386,3.1465,3.1475,3.1503,3.1616,3.1621,3.1538,3.1542,3.1545,3.1547,0,0,0,0,0,0,0,3.1139,3.1157,3.1327,3.1292,3.1296,3.1293,3.1305,3.1381,3.1424,3.136,3.136,3.1375,3.1466,3.1496,3.1505,3.1623,3.1538,3.1544,3.1548,3.1551,3.1821,3.1824,0,0,0,0,0,0,3.113,3.115,3.1324,3.1331,3.1214,3.1299,3.1313,3.1355,3.1423,3.1431,3.1377,3.1374,3.1485,3.1497,3.1509,3.1626,3.1545,3.1552,3.1556,3.1818,3.1821,3.1825,0,0,0,0,0,0,3.1125,3.1145,3.1319,3.1241,3.1263,3.1306,3.1353,3.1359,3.1389,3.1436,3.1443,3.14,3.1484,3.1499,3.1586,3.163,3.1555,3.1561,3.1814,3.1819,3.1823,3.186,0,0,0,0,0,0,3.1118,3.1143,3.1181,3.1242,3.1267,3.1395,3.1356,3.1363,3.1401,3.1399,3.1459,3.1466,3.1483,3.1576,3.1593,3.1638,3.1567,3.1811,3.1816,3.1822,3.1855,3.1865,3.1874,0,0,0,0,0,3.1109,3.1186,3.1183,3.1204,3.1315,3.1398,3.1412,3.1431,3.1405,3.1443,3.1473,3.1464,3.1622,3.1585,3.1604,3.1652,3.1808,3.1815,3.1821,3.1851,3.1863,3.1873,0,0,0,0,0,0,3.1127,3.1194,3.1192,3.129,3.1339,3.1396,3.1445,3.1443,3.1499,3.1494,3.1513,3.1526,3.1614,3.1641,3.1598,3.1748,3.1711,3.1722,3.1727,3.1739,3.1748,3.174,3.1573,0,0,0,0,0,3.1143,3.1206,3.126,3.1341,3.1366,3.1401,3.1438,3.1448,3.1498,3.1518,3.1555,3.1603,3.1663,3.1702,3.176,3.1858,3.1871,3.1901,3.191,3.1918,3.1927,3.1981,3.1995,3.1846,3.1846,3.1846,0,0,3.1175,3.1219,3.1258,3.1346,3.1385,3.1449,3.1418,3.1487,3.1534,3.1528,3.1613,3.1641,3.1696,3.1789,3.1832,3.1815,3.1971,3.1926,3.1932,3.1937,3.1989,3.2004,3.2016,3.1851,3.185,3.1849,0,0,3.1267,3.1307,3.138,3.142,3.148,3.1502,3.152,3.1578,3.1597,3.1683,3.168,3.1736,3.1839,3.1879,3.1912,3.2019,3.2014,3.2037,3.2086,3.2139,3.2151,3.2161,3.22,3.2214,3.2046,3.2046,3.2046,0,3.13,3.1398,3.1417,3.1487,3.1526,3.1525,3.1598,3.1635,3.171,3.1736,3.1716,3.1847,3.1883,3.1986,3.2012,3.2039,3.2059,3.2031,3.2148,3.2158,3.2168,3.2206,3.222,3.2049,3.2048,3.2048,3.2048,0,3.1435,3.1502,3.1554,3.1629,3.1673,3.1744,3.1773,3.1815,3.1821,3.1846,3.1933,3.1977,3.2044,3.2069,3.2075,3.2172,3.216,3.2144,3.2108,3.2185,3.222,3.2235,3.2052,3.2052,3.2051,3.205,0,0,3.1542,3.1627,3.1646,3.168,3.1746,3.1798,3.1868,3.1936,3.1972,3.2023,3.2082,3.217,3.2156,3.2194,3.2204,3.225,3.2333,3.2228,3.223,3.2247,3.2444,3.2457,3.2473,3.2329,3.2332,3.2334,3.2439,0,3.1642,3.177,3.1789,3.1901,3.1963,3.1963,3.2024,3.2071,3.2095,3.2151,3.2177,3.224,3.2215,3.2238,3.2284,3.2313,3.2373,3.2306,3.2384,3.2387,3.2372,3.2491,3.2505,3.2602,3.2453,3.2456,3.2457,0,3.1776,3.1833,3.1951,3.201,3.2036,3.2092,3.2155,3.2208,3.226,3.2275,3.2318,3.2322,3.2394,3.2354,3.2453,3.2407,3.244,3.2459,3.2464,3.2473,3.2428,3.2504,3.2634,3.2649,3.2479,3.2477,3.2476,0,3.1844,3.195,3.2035,3.2064,3.2133,3.2172,3.2202,3.2252,3.2291,3.2346,3.2372,3.2433,3.2467,3.2514,3.2535,3.2504,3.2633,3.2595,3.2647,3.2647,3.2675,3.2673,3.2813,3.2694,3.2694,3.2694,3.2694,0,3.1954,3.2027,3.2067,3.2119,3.22,3.2221,3.23,3.2329,3.2373,3.243,3.2432,3.2485,3.2509,3.2565,3.2581,3.2661,3.2676,3.2689,3.2693,3.269,3.2689,3.2713,3.2707,3.2698,3.2697,3.2696,3.2695,0,3.2044,3.2074,3.2166,3.2225,3.2241,3.2298,3.2348,3.2398,3.2422,3.2494,3.2512,3.2549,3.2616,3.2641,3.2721,3.2732,3.2825,3.2822,3.2808,3.2809,3.2861,3.2856,3.3021,3.3044,3.291,3.2911,3.2912,0,3.2113,3.2169,3.2234,3.2274,3.2306,3.2369,3.241,3.2432,3.2474,3.2537,3.258,3.2646,3.2701,3.2807,3.284,3.2902,3.2901,3.2955,3.291,3.2906,3.2903,3.29,3.2906,3.2964,3.2965,3.2966,3.2967,0,3.2233,3.2245,3.2305,3.237,3.2419,3.2471,3.2521,3.2552,3.2581,3.2628,3.2698,3.274,3.2823,3.2889,3.2952,3.2982,3.298,3.2981,3.2996,3.2994,3.2984,3.2992,3.2832,3.2977,3.2976,3.2975,3.2975,3.2974,3.2316,3.2366,3.242,3.2486,3.2527,3.2574,3.2624,3.2655,3.2713,3.2784,3.2793,3.2867,3.2917,3.3002,3.3034,3.3092,3.3077,3.3099,3.3105,3.3111,3.3115,3.2974,3.3103,3.3103,3.3102,3.3102,3.3102,0,3.2436,3.2471,3.2532,3.2603,3.2655,3.265,3.2705,3.2749,3.2814,3.2862,3.2916,3.2995,3.306,3.3098,3.3162,3.3201,3.3201,3.3217,3.3215,3.3222,3.3124,3.3105,3.3215,3.3215,3.3215,3.3215,3.3215,3.3215,3.2506,3.2591,3.2609,3.2714,3.2748,3.2822,3.2854,3.2897,3.2936,3.3025,3.3079,3.3104,3.3148,3.3215,3.3273,3.3283,3.3306,3.3324,3.3332,3.324,3.3228,3.3217,3.3199,3.3328,3.3329,3.3425,3.3426,3.3427]}]]